Theta_e
347 346 346 345 345 342 341 341 341 341 341 339 338 338 339 336 332 334 339 336 345 345 345 344 344 343 344 345 344 344 345 344 338
344 343 343 342 342 341 341 341 342 341 339 338 337 337 337 330 328 328 331 334 341 342 341 340 340 341 341 341 341 341 343 344 343
342 342 341 341 341 340 341 341 342 340 338 336 335 336 335 328 326 326 331 341 339 338 336 336 336 335 335 336 337 337 338 340 341
342 341 341 340 341 342 342 341 340 338 336 334 332 334 333 322 326 333 334 342 339 337 335 334 333 332 332 332 332 333 335 336 336
342 341 342 342 343 343 342 339 336 334 334 333 333 333 330 319 329 334 336 341 339 334 333 331 331 330 329 329 329 330 330 331 332
336 336 339 342 344 343 341 337 335 335 334 333 332 330 319 316 330 333 341 339 337 333 331 330 329 328 328 327 327 327 327 327 328
333 332 337 340 343 343 340 336 335 330 322 321 326 317 315 320 329 332 340 338 335 332 330 329 328 327 326 325 324 325 325 324 324
328 330 332 332 334 336 335 331 324 318 317 316 312 313 312 318 328 333 338 336 334 332 329 327 326 325 324 323 323 324 323 323 324
328 329 328 328 330 328 329 326 322 317 315 315 312 313 311 316 325 330 335 336 334 331 328 326 325 324 324 322 322 322 322 323 322
330 329 327 326 328 328 330 327 324 319 316 312 312 309 309 314 324 325 330 334 333 329 327 326 325 323 323 321 321 321 320 321 320
329 330 329 327 327 328 331 330 325 318 314 312 309 308 308 310 321 322 325 331 331 328 326 326 325 324 323 320 320 320 319 320 319
328 327 329 329 327 327 324 325 320 314 312 309 307 308 307 310 319 320 320 324 326 328 326 325 324 323 324 320 318 317 317 316 315
326 327 327 330 329 327 324 321 317 313 310 306 305 306 307 307 316 318 317 317 318 325 327 325 324 323 323 322 318 316 314 314 312
327 326 326 330 329 327 326 322 317 311 308 306 305 305 306 307 309 315 315 313 313 312 323 324 324 323 321 320 318 316 313 313 312
329 327 326 330 328 328 324 321 316 312 309 308 307 304 305 306 306 307 315 313 311 309 311 312 312 321 319 318 317 316 313 311 311
332 327 326 326 328 329 327 322 317 311 309 305 301 301 301 302 304 305 306 310 309 306 307 305 302 309 319 317 315 315 314 312 312
333 333 330 326 324 323 324 323 315 314 311 305 299 296 298 300 300 303 305 304 305 306 305 302 300 300 303 305 314 313 312 311 311
332 332 330 329 327 324 322 322 318 314 311 307 304 297 297 296 298 299 304 302 302 303 304 303 301 299 300 306 310 310 309 309 310
333 332 329 328 328 327 326 323 321 316 311 308 307 306 301 296 295 296 299 302 302 302 301 302 301 299 299 303 304 307 306 308 310
331 331 329 327 325 329 327 325 321 318 316 312 307 304 303 298 296 293 297 299 301 303 302 300 299 297 298 299 302 306 306 306 307
Wind_Speed
14 14 13 13 12 13 13 12 11 10 8 6 5 6 8 8 5 6 8 6 13 15 17 17 16 17 18 18 16 16 18 8 8
12 12 12 11 12 12 12 11 10 8 7 5 5 6 9 5 5 6 5 5 11 12 13 14 14 15 14 14 15 15 17 19 14
11 11 11 11 11 11 11 11 9 8 6 3 3 5 6 6 4 5 5 10 11 11 12 14 12 10 10 10 11 12 12 15 15
12 11 11 11 11 11 10 9 8 7 5 3 1 4 6 5 5 5 4 10 12 11 12 12 11 10 11 11 11 10 12 12 12
9 8 9 10 10 10 9 8 8 6 5 3 2 1 2 5 6 4 4 11 12 8 10 11 11 11 11 12 12 12 11 11 11
7 7 9 8 10 10 10 9 8 6 5 4 3 1 1 4 4 3 11 10 10 9 9 9 11 10 10 11 11 12 12 12 12
7 6 9 8 10 11 10 9 8 6 3 2 3 1 1 3 4 3 12 12 10 9 9 10 10 10 10 10 10 11 11 11 12
4 3 4 3 6 3 5 5 3 5 4 3 3 3 1 3 3 6 11 12 12 10 10 9 9 9 9 9 10 10 10 11 12
4 4 5 5 3 4 4 3 5 6 6 7 5 5 4 3 2 4 12 13 12 11 11 11 9 9 9 8 9 9 9 10 11
7 6 5 5 5 5 5 4 4 5 5 6 5 5 4 6 3 3 10 11 12 11 11 11 11 9 9 9 9 10 9 10 10
7 7 6 6 6 6 6 7 6 5 5 5 5 5 4 5 6 4 5 12 12 12 12 12 12 11 10 9 9 9 9 9 9
7 6 5 7 6 8 5 5 4 5 4 6 5 4 5 5 6 5 4 6 11 12 14 13 12 12 12 10 10 9 8 8 8
6 5 5 7 6 5 4 4 4 4 5 4 4 4 4 5 6 5 5 4 5 9 13 14 15 14 13 13 11 10 9 8 7
7 5 5 6 6 5 4 4 4 4 4 5 4 4 4 5 4 6 7 7 5 4 9 12 13 14 14 13 12 12 10 10 8
8 5 6 6 5 7 4 5 4 4 5 5 5 5 5 4 5 6 7 8 8 6 7 5 5 12 15 14 13 13 12 11 10
9 5 5 5 8 10 8 5 7 5 4 4 3 3 4 6 5 4 5 8 9 7 6 5 4 6 14 16 15 14 13 11 10
3 7 8 6 4 5 8 8 3 2 5 4 3 2 4 4 6 5 6 8 7 9 9 8 7 6 4 7 16 15 14 12 10
7 8 5 8 7 7 6 6 8 7 5 6 6 3 7 1 2 8 6 7 6 7 10 10 9 8 5 9 10 14 13 12 12
8 8 7 8 7 8 10 6 6 5 8 2 7 2 5 5 3 3 5 4 8 7 6 8 8 9 6 10 9 12 12 11 11
9 10 7 6 5 9 9 9 10 8 6 7 2 3 2 0 3 4 4 2 4 6 7 6 6 7 7 6 8 13 10 10 11
Wind_Direction
103 105 102 107 105 109 111 111 109 104 97 78 44 16 14 19 98 81 89 85 81 79 77 76 70 66 59 70 72 62 55 97 115
118 117 118 118 116 117 120 120 115 107 98 75 37 20 13 38 94 94 89 91 85 81 77 65 63 65 65 58 56 56 60 63 80
135 134 132 132 129 129 130 129 126 122 116 101 40 36 21 48 89 97 95 103 94 87 81 77 71 65 66 68 64 63 64 64 60
147 145 143 140 140 139 137 135 133 132 133 135 77 38 14 85 129 108 108 113 99 93 88 85 79 74 76 71 70 71 62 65 64
152 153 151 150 150 149 146 143 140 145 150 170 196 71 23 92 104 111 126 117 110 100 99 95 88 84 80 78 76 78 75 75 75
164 168 165 164 160 163 158 155 152 153 164 196 230 10 343 121 128 137 128 123 120 115 106 103 100 98 92 87 84 85 81 77 74
181 183 177 176 184 170 170 166 168 163 187 228 235 271 300 160 141 138 136 134 129 124 119 117 117 112 106 100 96 91 87 85 84
180 170 174 173 170 174 170 176 186 192 194 228 213 224 207 154 160 158 150 147 143 139 137 135 132 127 118 113 109 102 98 96 93
181 180 180 175 182 196 197 200 218 214 215 215 214 201 176 148 169 177 156 155 155 152 149 148 144 142 132 127 119 111 104 103 94
177 189 183 188 181 187 199 211 218 230 225 204 197 204 197 156 161 174 163 159 163 164 162 162 158 156 147 141 134 126 120 115 105
190 188 192 192 187 198 202 197 205 215 204 213 212 205 217 152 165 181 171 163 166 171 174 177 171 167 161 155 147 141 132 125 116
185 183 194 197 192 205 198 219 187 191 202 201 209 204 215 166 173 176 174 172 173 178 183 185 186 182 173 169 160 154 146 133 127
194 193 197 198 196 194 185 190 194 201 187 183 216 204 208 187 186 179 179 178 178 187 191 191 193 191 188 181 177 167 163 154 146
192 198 204 188 198 205 195 199 177 179 192 196 200 214 209 211 170 192 188 184 182 182 200 191 194 192 197 191 187 180 174 174 168
202 205 198 183 196 216 199 187 192 178 179 184 199 208 226 210 209 190 193 192 184 184 186 184 194 183 201 199 196 187 185 182 182
206 214 225 195 198 211 212 201 189 214 166 110 360 326 259 240 221 206 195 198 193 183 184 177 178 185 199 200 201 198 196 198 197
266 246 216 213 220 214 207 199 224 219 182 162 101 234 313 257 227 210 207 197 183 188 187 181 181 183 187 195 202 204 207 208 211
221 238 224 227 213 213 214 219 190 203 215 212 150 143 225 191 237 228 215 199 190 188 184 189 187 185 182 194 197 205 210 215 214
233 233 218 207 212 230 223 209 214 179 204 259 240 209 148 189 276 280 239 217 205 198 192 191 191 190 182 183 181 196 203 215 221
227 226 226 219 231 223 212 205 193 208 210 206 208 250 284 189 146 239 267 232 205 204 196 177 188 180 174 160 172 183 200 217 235